Tracking 27380 objects as of 5-Jun-2023
HD Live streaming from Space Station
objects crossing your sky now

STARLINK-1771

Track STARLINK-1771 now!
10-day predictions
STARLINK-1771 is classified as:


NORAD ID: 46384
Int'l Code: 2020-062BM
Perigee: 553.6 km
Apogee: 555.2 km
Inclination: 53.1 °
Period: 95.6 minutes
Semi major axis: 6925 km
RCS: Unknown
Launch date: September 3, 2020
Source: United States (US)
Launch site: AIR FORCE EASTERN TEST RANGE (AFETR)
Your satellite tracking list
Your tracking list is empty




NASA's NSSDC Master Catalog

Two Line Element Set (TLE):
1 46384U 20062BM  23155.41461441  .00004099  00000-0  29395-3 0  9999
2 46384  53.0521 227.4293 0001162 112.5884 247.5228 15.06393860152189
Source of the keplerian elements: AFSPC